When you browse on this site, cookies collect data to enhance your experience and personalize the content and advertising you see.
Visit our Privacy Policy to learn more. By continuing to use the site, you agree to this use of cookies and data.
  • In Hungary
  • List of Countries
  • For 7 days
  • Water Temperature
  • Satellite Maps
  • Weather Map
  • News
  • Weather Widgets
  • user-avatar
    Login

    Hourly Weather Prawocice

    Today, 20 May, Monday

    Time Temperature Precipitation Wind Pressure Humidity
    00:00 +15°C° 0 mm 2 mps 737 mmHg 90%
    01:00 +14°C° 0 mm 2 mps 737 mmHg 93%
    02:00 +14°C° 0 mm 2 mps 737 mmHg 93%
    03:00 +14°C° 0 mm 2 mps 737 mmHg 93%
    04:00 +14°C° 0 mm 1 mps 736 mmHg 93%
    05:00 +15°C° 0 mm 2 mps 736 mmHg 92%
    06:00 +16°C° 0 mm 2 mps 736 mmHg 90%
    07:00 +17°C° 0 mm 2 mps 736 mmHg 88%
    08:00 +18°C° 0.3 mm 3 mps 736 mmHg 84%
    09:00 +20°C° 0.3 mm 4 mps 736 mmHg 79%
    10:00 +22°C° 0.3 mm 5 mps 736 mmHg 75%
    11:00 +22°C° 0.4 mm 5 mps 736 mmHg 72%
    12:00 +22°C° 0.4 mm 6 mps 736 mmHg 68%
    13:00 +22°C° 0.4 mm 6 mps 736 mmHg 65%
    14:00 +22°C° 0 mm 5 mps 736 mmHg 63%
    15:00 +22°C° 0 mm 5 mps 736 mmHg 62%
    16:00 +22°C° 0 mm 4 mps 736 mmHg 60%
    17:00 +21°C° 0 mm 3 mps 736 mmHg 66%
    18:00 +20°C° 0 mm 2 mps 736 mmHg 72%
    19:00 +19°C° 0 mm 2 mps 736 mmHg 77%
    20:00 +17°C° 0 mm 2 mps 736 mmHg 80%
    21:00 +16°C° 0 mm 2 mps 736 mmHg 83%
    22:00 +15°C° 0 mm 2 mps 736 mmHg 86%
    23:00 +14°C° 0 mm 2 mps 736 mmHg 87%

    Tomorrow, 21 May, Tuesday

    Time Temperature Precipitation Wind Pressure Humidity
    00:00 +14°C° 0 mm 2 mps 736 mmHg 89%
    01:00 +13°C° 0 mm 2 mps 737 mmHg 90%
    02:00 +13°C° 0 mm 2 mps 737 mmHg 90%
    03:00 +13°C° 0 mm 2 mps 736 mmHg 90%
    04:00 +13°C° 0 mm 2 mps 736 mmHg 90%
    05:00 +14°C° 0 mm 1 mps 737 mmHg 86%
    06:00 +15°C° 0 mm 1 mps 737 mmHg 82%
    07:00 +18°C° 0 mm 1 mps 737 mmHg 77%
    08:00 +19°C° 0 mm 1 mps 737 mmHg 72%
    09:00 +20°C° 0 mm 1 mps 737 mmHg 67%
    10:00 +22°C° 0 mm 1 mps 737 mmHg 61%
    11:00 +21°C° 0.2 mm 1 mps 737 mmHg 64%
    12:00 +21°C° 0.2 mm 1 mps 737 mmHg 67%
    13:00 +21°C° 0.2 mm 1 mps 737 mmHg 70%
    14:00 +20°C° 0.4 mm 1 mps 737 mmHg 74%
    15:00 +20°C° 0.4 mm 1 mps 737 mmHg 78%
    16:00 +19°C° 0.4 mm 1 mps 736 mmHg 82%
    17:00 +19°C° 0.1 mm 1 mps 736 mmHg 83%
    18:00 +18°C° 0.1 mm 1 mps 736 mmHg 84%
    19:00 +16°C° 0.1 mm 1 mps 736 mmHg 86%
    20:00 +16°C° 1.5 mm 1 mps 737 mmHg 89%
    21:00 +16°C° 1.5 mm 2 mps 737 mmHg 92%
    22:00 +15°C° 1.5 mm 2 mps 737 mmHg 95%
    23:00 +15°C° 2.2 mm 2 mps 737 mmHg 96%

    Day after tomorrow, 22 May, Wednesday

    Time Temperature Precipitation Wind Pressure Humidity
    00:00 +15°C° 2.2 mm 2 mps 737 mmHg 96%
    01:00 +15°C° 2.2 mm 2 mps 737 mmHg 96%
    02:00 +14°C° 2.9 mm 3 mps 737 mmHg 96%
    03:00 +14°C° 2.9 mm 3 mps 737 mmHg 97%
    04:00 +14°C° 2.9 mm 4 mps 737 mmHg 97%
    05:00 +14°C° 0.7 mm 4 mps 737 mmHg 97%
    06:00 +14°C° 0.7 mm 5 mps 737 mmHg 96%
    07:00 +14°C° 0.7 mm 5 mps 737 mmHg 95%
    08:00 +14°C° 0.9 mm 5 mps 737 mmHg 95%
    09:00 +14°C° 0.9 mm 5 mps 737 mmHg 95%
    10:00 +14°C° 0.9 mm 5 mps 738 mmHg 95%
    11:00 +14°C° 1 mm 6 mps 738 mmHg 95%
    12:00 +14°C° 1 mm 6 mps 738 mmHg 95%
    13:00 +12°C° 1 mm 7 mps 739 mmHg 94%
    14:00 +12°C° 0.4 mm 7 mps 739 mmHg 94%
    15:00 +12°C° 0.4 mm 8 mps 739 mmHg 93%
    16:00 +12°C° 0.4 mm 8 mps 739 mmHg 92%
    17:00 +12°C° 1.2 mm 8 mps 740 mmHg 93%
    18:00 +11°C° 1.2 mm 8 mps 740 mmHg 94%
    19:00 +11°C° 1.2 mm 8 mps 740 mmHg 94%
    20:00 +11°C° 0.9 mm 8 mps 741 mmHg 94%
    21:00 +11°C° 0.9 mm 8 mps 741 mmHg 94%
    22:00 +11°C° 0.9 mm 8 mps 742 mmHg 94%
    23:00 +11°C° 0.2 mm 8 mps 742 mmHg 94%

    23 May, Thursday

    Time Temperature Precipitation Wind Pressure Humidity
    00:00 +11°C° 0.2 mm 8 mps 742 mmHg 94%
    01:00 +11°C° 0.2 mm 8 mps 742 mmHg 94%
    02:00 +10°C° 0.2 mm 8 mps 743 mmHg 94%
    03:00 +10°C° 0.2 mm 8 mps 743 mmHg 93%
    04:00 +9°C° 0.2 mm 8 mps 744 mmHg 93%
    05:00 +9°C° 0.2 mm 8 mps 744 mmHg 93%
    06:00 +7°C° 0.2 mm 8 mps 745 mmHg 93%
    07:00 +8°C° 0.2 mm 7 mps 745 mmHg 93%
    08:00 +8°C° 0.2 mm 7 mps 746 mmHg 91%
    09:00 +8°C° 0.2 mm 6 mps 746 mmHg 89%
    10:00 +9°C° 0.2 mm 6 mps 747 mmHg 87%
    11:00 +11°C° 0 mm 6 mps 747 mmHg 79%
    12:00 +13°C° 0 mm 6 mps 747 mmHg 70%
    13:00 +15°C° 0 mm 6 mps 747 mmHg 61%
    14:00 +16°C° 0 mm 5 mps 747 mmHg 61%
    15:00 +16°C° 0 mm 5 mps 747 mmHg 60%
    16:00 +16°C° 0 mm 5 mps 746 mmHg 59%
    17:00 +15°C° 0 mm 4 mps 746 mmHg 64%
    18:00 +14°C° 0 mm 3 mps 746 mmHg 69%
    19:00 +14°C° 0 mm 2 mps 746 mmHg 75%
    20:00 +13°C° 0 mm 2 mps 747 mmHg 77%
    21:00 +10°C° 0 mm 2 mps 747 mmHg 80%
    22:00 +9°C° 0 mm 2 mps 747 mmHg 82%
    23:00 +8°C° 0 mm 2 mps 747 mmHg 83%

    24 May, Friday

    Time Temperature Precipitation Wind Pressure Humidity
    00:00 +9°C° 0 mm 1 mps 747 mmHg 84%
    01:00 +8°C° 0 mm 1 mps 746 mmHg 85%
    02:00 +7°C° 0 mm 1 mps 746 mmHg 86%
    03:00 +7°C° 0 mm 1 mps 746 mmHg 86%
    04:00 +6°C° 0 mm 0 mps 746 mmHg 87%
    05:00 +7°C° 0 mm 0 mps 746 mmHg 81%
    06:00 +9°C° 0 mm 0 mps 745 mmHg 76%
    07:00 +11°C° 0 mm 0 mps 745 mmHg 71%
    08:00 +14°C° 0 mm 1 mps 745 mmHg 67%
    09:00 +15°C° 0 mm 1 mps 745 mmHg 62%
    10:00 +18°C° 0 mm 1 mps 744 mmHg 58%
    11:00 +19°C° 0 mm 1 mps 744 mmHg 55%
    12:00 +20°C° 0 mm 1 mps 743 mmHg 52%
    13:00 +18°C° 0 mm 0 mps 743 mmHg 49%
    14:00 +20°C° 0 mm 1 mps 742 mmHg 49%
    15:00 +20°C° 0 mm 1 mps 742 mmHg 49%
    16:00 +20°C° 0 mm 1 mps 741 mmHg 48%
    17:00 +19°C° 0 mm 1 mps 741 mmHg 55%
    18:00 +18°C° 0 mm 1 mps 740 mmHg 61%
    19:00 +16°C° 0 mm 2 mps 740 mmHg 67%
    20:00 +14°C° 0 mm 2 mps 740 mmHg 67%
    21:00 +13°C° 0 mm 2 mps 740 mmHg 68%
    22:00 +11°C° 0 mm 3 mps 740 mmHg 68%
    23:00 +12°C° 0 mm 2 mps 740 mmHg 68%

    25 May, Saturday

    Time Temperature Precipitation Wind Pressure Humidity
    00:00 +10°C° 0 mm 2 mps 740 mmHg 68%
    01:00 +10°C° 0 mm 2 mps 740 mmHg 69%
    02:00 +10°C° 0 mm 2 mps 740 mmHg 71%
    03:00 +9°C° 0 mm 2 mps 739 mmHg 73%
    04:00 +9°C° 0 mm 2 mps 739 mmHg 75%
    05:00 +10°C° 0 mm 2 mps 740 mmHg 73%
    06:00 +13°C° 0 mm 2 mps 740 mmHg 72%
    07:00 +14°C° 0 mm 2 mps 740 mmHg 70%
    08:00 +16°C° 0 mm 1 mps 740 mmHg 66%
    09:00 +19°C° 0 mm 1 mps 740 mmHg 62%
    10:00 +20°C° 0 mm 1 mps 740 mmHg 59%
    11:00 +21°C° 0 mm 1 mps 740 mmHg 55%
    12:00 +20°C° 0 mm 0 mps 740 mmHg 52%
    13:00 +21°C° 0 mm 0 mps 740 mmHg 49%
    14:00 +23°C° 0 mm 1 mps 740 mmHg 50%
    15:00 +23°C° 0 mm 1 mps 740 mmHg 50%
    16:00 +23°C° 0 mm 1 mps 740 mmHg 50%
    17:00 +21°C° 0.2 mm 2 mps 740 mmHg 60%
    18:00 +19°C° 0.2 mm 2 mps 740 mmHg 69%
    19:00 +18°C° 0.2 mm 2 mps 740 mmHg 79%
    20:00 +17°C° 0 mm 2 mps 740 mmHg 82%
    21:00 +15°C° 0 mm 2 mps 741 mmHg 85%
    22:00 +14°C° 0 mm 2 mps 741 mmHg 89%
    23:00 +14°C° 0 mm 2 mps 741 mmHg 90%
    Show more